Home   Weather   Szeged   Past weeks

Flag for Hungary Past Weather in Szeged, Hungary — Yesterday and Last 2 Weeks

Now
70 °F

Partly sunny.


Feels Like: 75 °F
Forecast: 65 / 95 °F
Wind: 2 mph from Southeast

Location: Szeged

Current Time: Jul 21, 2017 at 8:51:28 am

Latest Report: Jul 21, 2017 at 7:00 am


Visibility: 19 mi

Pressure: 29.88 "Hg

Humidity: 64%

Dew Point: 57 °F

Location of SzegedLocation

Past Weather in Szeged — Graph

°F

Szeged Temperature Yesterday

Maximum temperature yesterday: 94 °F (at 3:00 pm)
Minimum temperature yesterday: 65 °F (at 5:00 am)
Average temperature yesterday: 84 °F

High & Low Weather Summary for the Past Weeks

 TemperatureHumidityPressure
High98 °F (Jul 10, 3:00 pm)96% (Jul 16, 3:00 am)30.18 "Hg (Jul 16, 3:00 am)
Low52 °F (Jul 18, 5:00 am)22% (Jul 19, 5:00 pm)29.80 "Hg (Jul 10, 8:00 pm)
Average75 °F56%29.97 "Hg
* Reported Jul 6 7:00 am — Jul 21 7:00 am, Szeged. Weather by CustomWeather, © 2017

Note: Actual official high and low records may vary slightly from our data, if they occured in-between our weather recording intervals... More about our weather records

Advertising

Szeged Weather History for the Previous 24 Hours

Scroll right to see more
 ConditionsComfort  
Time TempWeatherWind HumidityBarometerVisibility
7:00 am
Fri, Jul 21
70 °FPartly sunny.2 mph64%29.88 "Hg19 mi
6:00 am67 °FPartly sunny.2 mph70%29.87 "Hg16 mi
5:00 am68 °FPassing clouds.3 mph68%29.86 "Hg16 mi
4:00 am68 °FClear.3 mph73%29.87 "Hg19 mi
3:00 am67 °FClear.1 mph76%29.87 "Hg19 mi
2:00 am68 °FClear.1 mph74%29.87 "Hg22 mi
1:00 am70 °FClear.1 mph69%29.85 "Hg22 mi
12:00 am73 °FPassing clouds.2 mph68%29.85 "Hg19 mi
11:00 pm
Thu, Jul 20
73 °FPassing clouds.1 mph64%29.85 "Hg19 mi
10:00 pm76 °FPassing clouds.1 mph56%29.84 "Hg19 mi
9:00 pm81 °FPassing clouds.2 mph48%29.82 "Hg22 mi
8:00 pm88 °FPassing clouds.3 mph38%29.81 "Hg25 mi
7:00 pm92 °FPassing clouds.3 mph31%29.80 "Hg25 mi
6:00 pm92 °FScattered clouds.3 mph30%29.81 "Hg25 mi
5:00 pm94 °FScattered clouds.2 mph29%29.82 "Hg22 mi
4:00 pm92 °FPassing clouds.2 mph28%29.83 "Hg25 mi
3:00 pm94 °FPassing clouds.3 mph26%29.84 "Hg25 mi
2:00 pm94 °FPassing clouds.2 mph27%29.85 "Hg25 mi
1:00 pm92 °FPassing clouds.3 mph30%29.87 "Hg22 mi
12:00 pm89 °FPassing clouds.2 mph35%29.89 "Hg22 mi
11:00 am86 °FPassing clouds.3 mph40%29.90 "Hg22 mi
10:00 am82 °FPassing clouds.3 mph47%29.91 "Hg22 mi
9:00 am77 °FPassing clouds.5 mph53%29.92 "Hg19 mi
8:00 am72 °FSunny.3 mph59%29.92 "Hg22 mi
Weather by CustomWeather, © 2017

See weather overviewHow to use our weather pages